Home   Weather

Flag for New Caledonia Past Weather in Noumea, New Caledonia, New Caledonia — Yesterday and Last 2 Weeks

Now
73 °F

Passing clouds.


Feels Like: 75 °F
Forecast: 69 / 80 °F
Wind: 2 mph from Northeast

Location: La Tontouta Nlle-Caledonie

Current Time: May 29, 2017 at 6:59:11 pm

Latest Report: May 29, 2017 at 6:00 pm


Visibility: N/A

Pressure: 30.04 "Hg

Humidity: 74%

Dew Point: 64 °F

Location of NoumeaLocation

Past Weather in Noumea — Graph

°F

Noumea Temperature Yesterday

Maximum temperature yesterday: 81 °F (at 1:30 pm)
Minimum temperature yesterday: 61 °F (at 3:00 am)
Average temperature yesterday: 69 °F

High & Low Weather Summary for the Past Weeks

 TemperatureHumidityPressure
High86 °F (May 16, 1:30 pm)100% (May 16, 5:30 am)30.12 "Hg (May 16, 5:30 am)
Low59 °F (May 27, 7:00 am)43% (May 22, 2:00 pm)29.83 "Hg (May 24, 1:30 pm)
Average72 °F82%29.99 "Hg
* Reported May 14 5:00 pm — May 29 5:30 pm, Noumea. Weather by CustomWeather, © 2017

Note: Actual official high and low records may vary slightly from our data, if they occured in-between our weather recording intervals... More about our weather records

Advertising

Noumea Weather History for the Previous 24 Hours

Scroll right to see more
 ConditionsComfort  
Time TempWeatherWind HumidityBarometerVisibility
5:30 pm
Mon, May 29
75 °FMostly cloudy.3 mph74%30.04 "HgN/A
5:00 pm75 °FPartly sunny.7 mph69%30.04 "HgN/A
4:30 pm77 °FPassing clouds.8 mph65%30.01 "HgN/A
4:00 pm77 °FSunny.8 mph65%30.01 "Hg10 mi
3:30 pm79 °FPassing clouds.8 mph61%30.01 "HgN/A
3:00 pm79 °FPassing clouds.7 mph65%30.01 "HgN/A
2:30 pm81 °FScattered clouds.8 mph58%30.01 "HgN/A
2:00 pm79 °FScattered clouds.6 mph65%30.01 "HgN/A
1:30 pm79 °FBroken clouds.7 mph65%30.01 "HgN/A
1:00 pm79 °FPassing clouds.7 mph65%30.04 "HgN/A
12:30 pm81 °FPassing clouds.8 mph62%30.04 "HgN/A
11:30 am81 °FPassing clouds.7 mph54%30.07 "HgN/A
11:00 am79 °FPassing clouds.5 mph54%30.09 "HgN/A
10:30 am79 °FPassing clouds.3 mph54%30.09 "HgN/A
10:00 am77 °FSunny.2 mph61%30.09 "Hg10 mi
9:30 am75 °FSunny.2 mph65%30.09 "Hg10 mi
9:00 am72 °FSunny.No wind78%30.12 "Hg10 mi
8:30 am70 °FSunny.No wind78%30.09 "Hg10 mi
8:00 am66 °FSunny.1 mph88%30.09 "Hg10 mi
7:30 am64 °FSunny.No wind88%30.09 "Hg10 mi
6:30 am59 °FSunny.No wind94%30.09 "Hg10 mi
6:00 am61 °FClear.2 mph94%30.09 "Hg10 mi
5:30 am59 °FClear.5 mph94%30.07 "Hg10 mi
5:00 am59 °FClear.1 mph100%30.07 "Hg10 mi
4:30 am61 °FClear.2 mph94%30.07 "Hg10 mi
4:00 am61 °FClear.2 mph100%30.07 "Hg10 mi
3:30 am61 °FClear.3 mph94%30.07 "Hg10 mi
3:00 am61 °FClear.No wind94%30.07 "Hg10 mi
2:30 am61 °FClear.No wind94%30.09 "Hg10 mi
2:00 am63 °FClear.No wind94%30.09 "Hg10 mi
1:30 am63 °FClear.No wind94%30.09 "Hg10 mi
1:00 am63 °FClear.1 mph94%30.09 "Hg10 mi
12:30 am63 °FClear.2 mph94%30.09 "Hg10 mi
12:00 am63 °FClear.1 mph94%30.09 "Hg10 mi
11:30 pm
Sun, May 28
64 °FClear.No wind88%30.09 "Hg10 mi
11:00 pm66 °FClear.No wind83%30.09 "Hg10 mi
10:30 pm66 °FClear.No wind88%30.09 "Hg10 mi
10:00 pm66 °FClear.No wind88%30.09 "Hg10 mi
9:30 pm66 °FClear.No wind88%30.09 "Hg10 mi
9:00 pm68 °FClear.1 mph83%30.09 "Hg10 mi
8:30 pm66 °FClear.No wind88%30.09 "Hg10 mi
8:00 pm68 °FClear.No wind83%30.07 "Hg10 mi
7:30 pm70 °FClear.No wind78%30.07 "Hg10 mi
7:00 pm70 °FPassing clouds.3 mph78%30.07 "HgN/A
6:30 pm70 °FClear.No wind83%30.04 "Hg10 mi
6:00 pm70 °FClear.5 mph78%30.04 "Hg10 mi
Weather by CustomWeather, © 2017

See weather overviewHow to use our weather pages